Printer-friendly version

IAU Minor Planet Center

Minor Planet Center

MPEC 2007-V37 : 2007 VW7

The following Minor Planet Electronic Circular may be linked-to from your own Web pages, but must not otherwise be redistributed electronically.


Read MPEC 2007-V36 Read MPEC 2007-V38


M.P.E.C. 2007-V37                                Issued 2007 Nov. 5, 19:55 UT

     The Minor Planet Electronic Circulars contain information on unusual
         minor planets and routine data on comets.  They are published
   on behalf of Commission 20 of the International Astronomical Union by the
          Minor Planet Center, Smithsonian Astrophysical Observatory,
                          Cambridge, MA 02138, U.S.A.

             Prepared using the Tamkin Foundation Computer Network

                              MPC@CFA.HARVARD.EDU
          URL http://www.cfa.harvard.edu/iau/mpc.html  ISSN 1523-6714

                                   2007 VW7

Observations:
     K07V07W* C2007 11 04.26681 02 14 58.48 +12 54 36.1          19.9 V EV037G96
     K07V07W  C2007 11 04.27171 02 15 00.21 +12 53 35.6          19.4 V EV037G96
     K07V07W  C2007 11 04.27668 02 15 01.98 +12 52 34.8          19.7 V EV037G96
     K07V07W  C2007 11 04.28617 02 15 05.32 +12 50 38.1          19.4 V EV037G96
     K07V07W  C2007 11 04.33575 02 15 22.89 +12 40 26.5          19.3 V EV037G96
     K07V07W  C2007 11 04.33629 02 15 23.11 +12 40 20.1          19.3 V EV037G96
     K07V07W  C2007 11 04.33683 02 15 23.29 +12 40 13.1          19.3 V EV037G96
     K07V07W  C2007 11 04.33736 02 15 23.50 +12 40 06.6          19.5 V EV037G96
     K07V07W  C2007 11 04.43254 02 15 58.28 +12 20 21.3          19.4 V EV037G96
     K07V07W  C2007 11 04.43295 02 15 58.42 +12 20 16.2          19.8 V EV037G96
     K07V07W  C2007 11 04.43339 02 15 58.60 +12 20 10.6          19.7 V EV037G96
     K07V07W  C2007 11 04.43381 02 15 58.75 +12 20 05.5          19.7 V EV037G96
     K07V07W  C2007 11 05.24205 02 21 37.59 +09 30 17.6          19.1 R EV037734
     K07V07W  C2007 11 05.24469 02 21 38.58 +09 29 42.6          19.5 R EV037734
     K07V07W  C2007 11 05.24706 02 21 39.41 +09 29 13.3          19.8 R EV037734
     K07V07W  C2007 11 05.24942 02 21 40.26 +09 28 43.3          19.9 R EV037734
     K07V07W  C2007 11 05.26284 02 21 47.21 +09 26 06.3          19.9 V EV037703
     K07V07W  C2007 11 05.26420 02 21 47.77 +09 25 48.7          19.7 V EV037703
     K07V07W  C2007 11 05.26690 02 21 48.86 +09 25 14.4                 EV037703

Observer details:
703 Catalina Sky Survey.  Observer R. A. Kowalski.  Measurers E. C. Beshore,
    A. Boattini, G. J. Garradd, A. R. Gibbs, A. D. Grauer, R. E. Hill,
    R. A. Kowalski, S. M. Larson, R. H. McNaught.  0.68-m Schmidt + CCD.
734 Farpoint Observatory.  Observer G. Hug.  0.7-m reflector + CCD.
G96 Mt. Lemmon Survey.  Observer A. Boattini.  Measurers E. C. Beshore,
    A. Boattini, G. J. Garradd, A. R. Gibbs, A. D. Grauer, R. E. Hill,
    R. A. Kowalski, S. M. Larson, R. H. McNaught.  1.5-m reflector + CCD.

Orbital elements:
2007 VW7                                                 Earth MOID = 0.0568 AU
Epoch 2007 Oct. 27.0 TT = JDT 2454400.5                 MPC
M 336.24856              (2000.0)            P               Q
n   0.64569899     Peri.  209.58074     +0.34208087     -0.92910237
a   1.3257124      Node   220.87445     +0.89879552     +0.36715047
e   0.2254551      Incl.   12.40082     +0.27413006     -0.04437693
P   1.53           H   25.2           G   0.15           U   8
Residuals in seconds of arc
071104 G96  0.0   0.0     071104 G96  0.2+  0.1+    071105 734  0.3-  0.0
071104 G96  0.1-  0.3-    071104 G96  0.1+  0.1-    071105 734  0.4-  0.2+
071104 G96  0.1+  0.1-    071104 G96  0.1-  0.0     071105 703  1.1-  0.3+
071104 G96  0.1-  0.1-    071104 G96  0.1+  0.1-    071105 703  0.0   0.1+
071104 G96  0.3-  0.1+    071104 G96  0.0   0.0     071105 703  1.7+  0.4+
071104 G96  0.1+  0.4+    071105 734  0.2-  0.1+
071104 G96  0.1-  0.1+    071105 734  0.2+  1.1-

Ephemeris:
2007 VW7                 a,e,i = 1.33, 0.23, 12                  q = 1.0268
Date    TT    R. A. (2000) Decl.     Delta      r     Elong.  Phase     V
2007 11 06    02 26.88   +06 47.9    0.0583   1.049   170.3     9.2    19.7
2007 11 07    02 33.90   +03 06.6    0.0576   1.047   166.7    12.6    19.9
2007 11 08    02 41.00   -00 38.2    0.0573   1.046   162.8    16.2    20.0
2007 11 09    02 48.16   -04 23.4    0.0573   1.044   158.9    20.0    20.1
2007 11 10    02 55.36   -08 06.2    0.0576   1.043   154.9    23.7    20.2
2007 11 11    03 02.57   -11 43.8    0.0582   1.042   151.0    27.4    20.3
2007 11 12    03 09.78   -15 13.6    0.0592   1.040   147.3    31.0    20.5
2007 11 13    03 16.95   -18 33.7    0.0604   1.039   143.6    34.4    20.6
2007 11 14    03 24.07   -21 42.6    0.0619   1.038   140.2    37.6    20.8
2007 11 15    03 31.12   -24 39.4    0.0636   1.037   136.9    40.7    20.9
2007 11 16    03 38.07   -27 23.6    0.0656   1.036   133.9    43.5    21.0
2007 11 17    03 44.92   -29 55.1    0.0677   1.035   131.1    46.1    21.2
2007 11 18    03 51.65   -32 14.4    0.0700   1.034   128.5    48.5    21.3
2007 11 19    03 58.24   -34 21.7    0.0725   1.033   126.1    50.7    21.5
2007 11 20    04 04.68   -36 17.8    0.0751   1.032   123.9    52.7    21.6
2007 11 21    04 10.97   -38 03.4    0.0778   1.031   121.8    54.5    21.7
2007 11 22    04 17.09   -39 39.3    0.0806   1.030   120.0    56.1    21.8
2007 11 23    04 23.03   -41 06.3    0.0835   1.030   118.3    57.6    22.0
2007 11 24    04 28.80   -42 25.1    0.0865   1.029   116.7    59.0    22.1
2007 11 25    04 34.38   -43 36.5    0.0895   1.029   115.3    60.2    22.2
2007 11 26    04 39.78   -44 41.1    0.0926   1.028   114.0    61.3    22.3

Timothy B. Spahr             (C) Copyright 2007 MPC           M.P.E.C. 2007-V37

Read MPEC 2007-V36 Read MPEC 2007-V38


Our Web policy. Index to the CBAT/MPC/ICQ pages.


Valid HTML 4.01!